GW4987 Weather Reports


Display with metric or nautical units.
time (UTC)temp
F
wind
direction
speed
MPH
gust
MPH
rain 1hr
in
rain 24hr
in
rain mn
in
humidity
%
barometer
mb
20260507040509 56 257 8.0 14.0 0.00 0.00 0.00 39 1019.4
20260507034546 57 217 5.0 16.0 0.00 0.00 0.00 38 1019.3
20260507034046 57 256 8.0 14.0 0.00 0.00 0.00 38 1019.4
20260507033547 57 254 6.0 14.0 0.00 0.00 0.00 38 1019.0
20260507033010 57 231 7.0 15.0 0.00 0.00 0.00 38 1019.3
20260507032546 57 239 6.0 18.0 0.00 0.00 0.00 37 1018.9
20260507032047 57 260 7.0 12.0 0.00 0.00 0.00 37 1018.8
20260507030547 58 258 3.0 7.0 0.00 0.00 0.00 37 1018.8
20260507030010 58 196 3.0 5.0 0.00 0.00 0.00 37 1018.8
20260507025546 59 286 5.0 6.0 0.00 0.00 0.00 36 1018.9
20260507025046 59 286 5.0 6.0 0.00 0.00 0.00 36 1018.7
20260507024547 59 286 5.0 6.0 0.00 0.00 0.00 36 1018.7
20260507024011 59 286 5.0 6.0 0.00 0.00 0.00 36 1018.5
20260507023546 59 286 5.0 6.0 0.00 0.00 0.00 36 1018.4
20260507023047 59 282 6.0 6.0 0.00 0.00 0.00 36 1018.2
20260507021009 60 262 16.0 17.0 0.00 0.00 0.00 34 1018.0
20260507020546 63 275 15.0 15.0 0.00 0.00 0.00 32 1018.0
20260507020047 63 275 15.0 15.0 0.00 0.00 0.00 32 1018.0
20260507014047 63 275 15.0 15.0 0.00 0.00 0.00 32 1018.0
20260507013509 63 257 12.0 17.0 0.00 0.00 0.00 31 1017.9
20260507013046 64 248 8.0 13.0 0.00 0.00 0.00 31 1017.7
20260507012546 64 226 9.0 16.0 0.00 0.00 0.00 30 1017.8
20260507012046 65 253 12.0 13.0 0.00 0.00 0.00 29 1017.9
20260507010009 66 237 12.0 17.0 0.00 0.00 0.00 29 1017.7
20260507005546 66 272 14.0 16.0 0.00 0.00 0.00 29 1017.7
20260507005047 67 218 11.0 17.0 0.00 0.00 0.00 28 1017.8
20260507004510 67 247 9.0 13.0 0.00 0.00 0.00 28 1017.8
20260507004009 67 250 5.0 10.0 0.00 0.00 0.00 28 1017.8
20260507003547 66 193 7.0 15.0 0.00 0.00 0.00 29 1017.7
20260507003009 68 281 5.0 13.0 0.00 0.00 0.00 27 1017.7
20260507002547 67 214 9.0 13.0 0.00 0.00 0.00 27 1017.8
20260507002047 67 265 7.0 15.0 0.00 0.00 0.00 28 1017.5
20260507000546 68 217 7.0 12.0 0.00 0.00 0.00 27 1017.6
20260507000046 68 250 7.0 11.0 0.00 0.00 0.00 28 1017.5
20260506235547 67 218 10.0 17.0 0.00 0.00 0.00 28 1017.6
20260506233546 67 212 13.0 19.0 0.00 0.00 0.00 27 1017.6
20260506233046 67 249 6.0 14.0 0.00 0.00 0.00 27 1017.6
20260506232547 68 198 5.0 13.0 0.00 0.00 0.00 27 1017.7
20260506232009 68 262 2.0 10.0 0.00 0.00 0.00 27 1017.8
20260506231546 70 230 5.0 8.0 0.00 0.00 0.00 25 1017.6
20260506231047 67 250 7.0 11.0 0.00 0.00 0.00 26 1017.7
20260506230510 67 176 6.0 10.0 0.00 0.00 0.00 27 1017.5
20260506230010 67 221 5.0 5.0 0.00 0.00 0.00 26 1017.5
20260506225547 65 103 3.0 8.0 0.00 0.00 0.00 27 1017.6
20260506225009 65 289 6.0 13.0 0.00 0.00 0.00 27 1017.6
20260506224546 66 261 15.0 16.0 0.00 0.00 0.00 26 1017.7
20260506224047 67 188 6.0 9.0 0.00 0.00 0.00 26 1017.6
20260506222046 67 295 11.0 15.0 0.00 0.00 0.00 26 1017.9
20260506221509 67 310 3.0 8.0 0.00 0.00 0.00 26 1017.9
20260506221009 67 84 3.0 5.0 0.00 0.00 0.00 26 1018.0
20260506220546 66 31 2.0 4.0 0.00 0.00 0.00 26 1018.0
20260506220047 68 70 6.0 7.0 0.00 0.00 0.00 24 1018.0
20260506215547 66 50 2.0 8.0 0.00 0.00 0.00 26 1018.0
20260506215047 67 89 3.0 6.0 0.00 0.00 0.00 25 1018.0
20260506214547 66 334 6.0 14.0 0.00 0.00 0.00 26 1018.1
20260506214009 68 358 8.0 9.0 0.00 0.00 0.00 24 1018.2
20260506213546 69 14 7.0 15.0 0.00 0.00 0.00 24 1018.2
20260506213047 68 10 8.0 17.0 0.00 0.00 0.00 24 1018.4
20260506212509 68 279 5.0 9.0 0.00 0.00 0.00 25 1018.3
20260506212009 66 309 5.0 9.0 0.00 0.00 0.00 26 1018.2
20260506211547 66 92 3.0 7.0 0.00 0.00 0.00 25 1018.3
20260506211009 69 110 5.0 9.0 0.00 0.00 0.00 25 1018.4
20260506210547 68 86 2.0 11.0 0.00 0.00 0.00 25 1018.4
20260506210047 65 74 6.0 12.0 0.00 0.00 0.00 26 1018.6
20260506205547 67 61 7.0 13.0 0.00 0.00 0.00 25 1018.6
20260506205047 67 329 3.0 6.0 0.00 0.00 0.00 26 1018.6
20260506204547 67 2 3.0 10.0 0.00 0.00 0.00 26 1018.8
20260506204047 69 335 8.0 8.0 0.00 0.00 0.00 25 1018.6
20260506203547 67 3 7.0 7.0 0.00 0.00 0.00 25 1018.5
20260506203010 66 292 8.0 14.0 0.00 0.00 0.00 26 1018.7
20260506202546 65 140 3.0 8.0 0.00 0.00 0.00 27 1018.8
20260506202047 64 304 13.0 16.0 0.00 0.00 0.00 27 1018.6
20260506200010 65 339 7.0 12.0 0.00 0.00 0.00 27 1018.7
20260506195547 64 245 9.0 11.0 0.00 0.00 0.00 28 1018.8
20260506195047 63 305 12.0 16.0 0.00 0.00 0.00 28 1018.8
20260506194509 63 341 4.0 13.0 0.00 0.00 0.00 29 1018.9
20260506194010 64 34 6.0 16.0 0.00 0.00 0.00 28 1018.8
20260506193547 64 286 16.0 18.0 0.00 0.00 0.00 28 1018.9
20260506193009 64 26 5.0 12.0 0.00 0.00 0.00 28 1019.0
20260506192546 63 296 12.0 15.0 0.00 0.00 0.00 28 1018.9
20260506192047 63 49 7.0 12.0 0.00 0.00 0.00 28 1018.8
20260506191546 63 290 7.0 19.0 0.00 0.00 0.00 28 1018.7
20260506191009 65 8 13.0 15.0 0.00 0.00 0.00 27 1018.8
20260506190547 64 13 11.0 13.0 0.00 0.00 0.00 27 1018.8
20260506190047 63 28 5.0 11.0 0.00 0.00 0.00 27 1019.0
20260506185547 63 18 6.0 15.0 0.00 0.00 0.00 28 1019.2
20260506183546 62 313 14.0 17.0 0.00 0.00 0.00 29 1018.8
20260506183046 61 317 5.0 7.0 0.00 0.00 0.00 29 1019.0
20260506182547 64 13 8.0 10.0 0.00 0.00 0.00 28 1019.2
20260506182009 63 40 3.0 6.0 0.00 0.00 0.00 30 1019.2
20260506181546 62 71 8.0 12.0 0.00 0.00 0.00 30 1019.4
20260506181046 61 293 5.0 12.0 0.00 0.00 0.00 31 1019.4
20260506180510 62 351 7.0 10.0 0.00 0.00 0.00 30 1019.2
20260506180010 62 72 10.0 14.0 0.00 0.00 0.00 30 1019.3
20260506175546 62 143 3.0 4.0 0.00 0.00 0.00 31 1019.4
20260506175010 61 15 8.0 11.0 0.00 0.00 0.00 31 1019.3
20260506174547 61 112 11.0 12.0 0.00 0.00 0.00 31 1019.3
20260506174047 60 327 0.0 10.0 0.00 0.00 0.00 33 1019.2
20260506173546 61 39 4.0 7.0 0.00 0.00 0.00 32 1019.3
20260506173010 60 54 6.0 13.0 0.00 0.00 0.00 32 1019.2
20260506172547 60 74 3.0 5.0 0.00 0.00 0.00 32 1019.0
20260506172047 58 104 4.0 8.0 0.00 0.00 0.00 34 1019.0
20260506171511 57 30 2.0 12.0 0.00 0.00 0.00 35 1019.2
20260506171009 57 293 0.0 5.0 0.00 0.00 0.00 34 1019.2
20260506170547 57 213 6.0 7.0 0.00 0.00 0.00 35 1018.9
20260506170047 58 251 3.0 11.0 0.00 0.00 0.00 34 1018.9
20260506165546 57 323 4.0 13.0 0.00 0.00 0.00 35 1018.8
20260506165046 57 286 0.0 7.0 0.00 0.00 0.00 35 1018.9
20260506164547 58 16 4.0 6.0 0.00 0.00 0.00 34 1019.3
20260506164009 57 300 5.0 7.0 0.00 0.00 0.00 35 1019.0
20260506163546 56 310 5.0 12.0 0.00 0.00 0.00 36 1018.9
20260506163047 55 288 10.0 10.0 0.00 0.00 0.00 36 1018.8
20260506162509 57 333 5.0 6.0 0.00 0.00 0.00 34 1018.8
20260506162009 56 340 6.0 7.0 0.00 0.00 0.00 34 1018.9
20260506161546 56 305 6.0 13.0 0.00 0.00 0.00 35 1018.7
20260506161009 55 48 4.0 6.0 0.00 0.00 0.00 36 1018.7
20260506160547 55 133 6.0 7.0 0.00 0.00 0.00 35 1018.8
20260506160046 55 341 5.0 8.0 0.00 0.00 0.00 36 1018.6
20260506155547 54 276 3.0 10.0 0.00 0.00 0.00 37 1018.6
20260506155047 54 324 2.0 4.0 0.00 0.00 0.00 37 1018.6
20260506154546 54 266 9.0 10.0 0.00 0.00 0.00 37 1018.8
20260506154046 54 1 7.0 8.0 0.00 0.00 0.00 37 1018.6
20260506153547 53 212 3.0 8.0 0.00 0.00 0.00 37 1018.5
20260506151546 55 177 4.0 6.0 0.00 0.00 0.00 36 1018.5
20260506151047 54 309 5.0 6.0 0.00 0.00 0.00 38 1018.5
20260506150547 53 32 5.0 7.0 0.00 0.00 0.00 36 1018.4
20260506150011 52 261 6.0 7.0 0.00 0.00 0.00 38 1018.4
20260506145547 53 266 3.0 4.0 0.00 0.00 0.00 38 1018.6
20260506145046 53 353 4.0 5.0 0.00 0.00 0.00 38 1018.5
20260506144510 51 133 2.0 3.0 0.00 0.00 0.00 39 1018.3
20260506144047 51 343 6.0 8.0 0.00 0.00 0.00 41 1018.4
20260506143547 51 336 3.0 4.0 0.00 0.00 0.00 40 1018.4
20260506143010 52 187 2.0 3.0 0.00 0.00 0.00 42 1018.3
20260506142546 53 269 3.0 3.0 0.00 0.00 0.00 44 1018.4
20260506142046 52 62 3.0 5.0 0.00 0.00 0.00 45 1018.2
20260506141546 51 103 4.0 5.0 0.00 0.00 0.00 45 1018.4
20260506141009 51 71 3.0 5.0 0.00 0.00 0.00 47 1018.2
20260506140546 50 89 3.0 5.0 0.00 0.00 0.00 47 1018.3
20260506140047 50 113 3.0 5.0 0.00 0.00 0.00 48 1018.2
20260506135547 50 94 4.0 5.0 0.00 0.00 0.00 49 1018.3
20260506135010 50 103 3.0 3.0 0.00 0.00 0.00 49 1018.2
20260506134547 48 103 2.0 3.0 0.00 0.00 0.00 52 1018.2
20260506134046 45 148 2.0 3.0 0.00 0.00 0.00 56 1018.0
20260506133546 44 131 0.0 3.0 0.00 0.00 0.00 59 1018.0
20260506133047 42 60 0.0 3.0 0.00 0.00 0.00 61 1018.0
20260506131047 38 271 3.0 3.0 0.00 0.00 0.00 69 1017.9
20260506130510 37 255 2.0 3.0 0.00 0.00 0.00 72 1018.0
20260506130010 37 313 2.0 2.0 0.00 0.00 0.00 73 1017.8
20260506125546 36 254 3.0 3.0 0.00 0.00 0.00 74 1018.0
20260506125010 35 311 2.0 3.0 0.00 0.00 0.00 75 1018.0
20260506123011 37 0 0.0 2.0 0.00 0.00 0.00 73 1017.5
20260506122547 36 193 0.0 2.0 0.00 0.00 0.00 73 1017.4
20260506122047 38 193 0.0 3.0 0.00 0.00 0.00 70 1017.2
20260506121510 38 201 2.0 3.0 0.00 0.00 0.00 71 1017.4
20260506121010 37 268 3.0 3.0 0.00 0.00 0.00 72 1017.4
20260506120547 37 252 2.0 4.0 0.00 0.00 0.00 71 1017.6
20260506120047 38 246 0.0 0.0 0.00 0.00 0.00 68 1017.5
20260506115547 38 246 0.0 0.0 0.00 0.00 0.00 68 1017.3
20260506115047 38 246 0.0 0.0 0.00 0.00 0.00 68 1017.6
20260506112010 40 252 4.0 4.0 0.00 0.00 0.00 65 1017.2
20260506111547 39 255 5.0 5.0 0.00 0.00 0.00 66 1017.3
20260506111011 38 253 3.0 3.0 0.00 0.00 0.00 67 1017.2
20260506110547 38 185 2.0 2.0 0.00 0.00 0.00 66 1017.5
20260506110047 39 340 0.0 2.0 0.00 0.00 0.00 66 1017.3
20260506105547 38 180 0.0 0.0 0.00 0.00 0.00 68 1017.2
20260506105010 38 180 0.0 0.0 0.00 0.00 0.00 68 1017.3
20260506104546 37 211 3.0 3.0 0.00 0.00 0.00 69 1017.1
20260506104047 37 125 3.0 5.0 0.00 0.00 0.00 67 1017.1
20260506102047 40 237 3.0 4.0 0.00 0.00 0.00 63 1017.0
20260506101547 40 237 3.0 4.0 0.00 0.00 0.00 63 1017.1
20260506101047 40 251 4.0 5.0 0.00 0.00 0.00 63 1017.1
20260506100547 40 261 5.0 5.0 0.00 0.00 0.00 63 1017.1
20260506100009 40 227 3.0 4.0 0.00 0.00 0.00 62 1017.0
20260506095547 41 235 4.0 5.0 0.00 0.00 0.00 61 1017.2
20260506095046 41 249 4.0 4.0 0.00 0.00 0.00 60 1017.0
20260506094509 42 225 4.0 5.0 0.00 0.00 0.00 59 1017.2
20260506092546 41 217 3.0 4.0 0.00 0.00 0.00 61 1017.1
20260506092046 41 217 3.0 4.0 0.00 0.00 0.00 61 1016.8
20260506091547 41 217 3.0 4.0 0.00 0.00 0.00 61 1016.7
20260506091009 41 217 3.0 4.0 0.00 0.00 0.00 61 1016.7
20260506090546 41 217 3.0 4.0 0.00 0.00 0.00 61 1016.7
20260506090047 42 264 5.0 5.0 0.00 0.00 0.00 58 1016.7
20260506085546 42 264 5.0 5.0 0.00 0.00 0.00 58 1016.6
20260506085009 42 264 5.0 5.0 0.00 0.00 0.00 58 1017.0
20260506084547 42 264 5.0 5.0 0.00 0.00 0.00 58 1016.8
20260506084047 42 264 5.0 5.0 0.00 0.00 0.00 58 1016.6
20260506083547 42 265 4.0 7.0 0.00 0.00 0.00 59 1016.7
20260506083047 42 268 6.0 7.0 0.00 0.00 0.00 59 1016.8
20260506082546 41 255 5.0 5.0 0.00 0.00 0.00 59 1016.5
20260506082009 41 255 5.0 5.0 0.00 0.00 0.00 59 1016.4
20260506081547 41 255 5.0 5.0 0.00 0.00 0.00 59 1016.7
20260506080510 42 241 3.0 4.0 0.00 0.00 0.00 56 1016.7
20260506073010 42 241 3.0 4.0 0.00 0.00 0.00 56 1016.8
20260506072546 42 241 3.0 4.0 0.00 0.00 0.00 56 1016.8
20260506072047 42 241 3.0 4.0 0.00 0.00 0.00 56 1016.7
20260506071510 42 241 3.0 4.0 0.00 0.00 0.00 56 1016.6
20260506071010 42 241 3.0 4.0 0.00 0.00 0.00 56 1016.6
20260506070514 43 257 3.0 3.0 0.00 0.00 0.00 56 1016.7
20260506061010 44 263 4.0 5.0 0.00 0.00 0.00 51 1016.3
20260506060547 44 263 4.0 5.0 0.00 0.00 0.00 51 1016.5
20260506051047 44 247 4.0 5.0 0.00 0.00 0.00 51 1016.3
20260506050547 45 249 4.0 4.0 0.00 0.00 0.00 51 1016.2
20260506045046 45 247 3.0 3.0 0.00 0.00 0.00 51 1016.1
20260506044510 45 247 3.0 3.0 0.00 0.00 0.00 51 1016.3
20260506044009 45 247 3.0 3.0 0.00 0.00 0.00 51 1016.0
20260506043546 45 256 3.0 3.0 0.00 0.00 0.00 51 1016.1
20260506043009 45 237 3.0 3.0 0.00 0.00 0.00 51 1016.1
20260506042546 45 230 3.0 5.0 0.00 0.00 0.00 51 1016.0
20260506042047 45 212 3.0 4.0 0.00 0.00 0.00 52 1016.0
20260506041547 45 231 3.0 3.0 0.00 0.00 0.00 52 1015.8